RH
70 60 47 30 36 36 33 23 15 14 19 18 15 16 19 18 18 37 53 49 71 80 82 87 94 90 89 88 88 91 91 89 90 91 90 89 87 85 84 82 81 81 79 73 72 75 77 80 84
39 27 29 29 38 48 33 18 15 15 16 14 13 17 20 19 43 57 60 50 60 78 82 87 95 92 90 89 89 89 89 89 90 90 90 88 87 86 85 84 84 82 77 72 74 75 78 81 83
45 30 30 35 44 40 32 14 14 14 12 13 14 15 18 22 33 50 52 53 46 62 75 82 94 95 93 91 89 89 90 89 90 90 89 88 87 86 85 84 83 80 77 73 71 76 78 83 85
35 34 26 35 34 24 20 14 13 12 12 12 13 23 19 17 23 47 44 47 48 62 79 91 93 94 94 92 90 90 90 90 90 89 88 88 86 86 85 84 81 79 77 74 70 77 81 83 84
26 31 36 43 30 19 15 12 12 13 14 18 16 21 22 29 41 43 50 54 64 82 93 93 94 92 92 93 91 84 81 91 84 84 86 84 88 85 84 83 81 79 77 76 79 82 83 84 82
32 28 37 36 24 15 12 12 12 14 14 14 16 22 27 37 41 57 60 72 75 76 94 95 92 92 92 90 91 90 91 87 92 94 95 89 84 84 85 84 83 81 83 84 85 83 83 83 81
34 34 34 28 22 17 12 15 16 14 15 14 17 21 36 55 55 59 66 75 76 74 85 96 93 88 90 94 92 92 93 90 92 92 93 95 95 88 85 84 85 86 87 87 86 84 84 83 79
26 27 29 25 22 20 12 15 12 12 13 12 12 19 23 60 59 59 70 78 78 78 86 87 90 90 95 97 95 94 93 93 92 90 89 90 95 94 85 87 88 88 88 87 85 87 85 81 77
23 30 26 25 21 17 11 12 12 11 12 12 12 15 27 52 56 63 71 82 88 84 89 84 84 80 98 96 92 92 92 92 89 88 88 89 92 95 85 84 88 88 88 88 87 86 84 80 74
23 33 25 18 16 15 13 12 11 14 13 13 16 26 46 50 52 58 67 79 92 92 92 88 85 89 95 91 95 96 96 93 90 90 92 92 92 91 84 88 88 88 88 88 87 85 82 72 72
23 24 19 17 15 14 14 13 10 13 14 14 17 18 23 46 51 54 57 66 76 86 93 88 85 92 95 97 99 100 100 97 94 95 95 93 97 94 90 90 88 89 88 87 85 78 69 67 70
23 18 16 15 14 13 13 14 14 14 13 12 12 16 21 27 42 51 54 61 87 89 93 91 89 93 95 98 99 99 99 99 98 97 95 94 97 94 86 87 90 89 87 87 80 78 67 63 62
20 18 15 13 13 13 12 16 16 14 12 11 10 11 24 26 35 52 58 62 76 91 94 93 92 92 94 97 99 99 99 98 98 98 94 98 94 90 83 88 86 80 78 74 76 76 58 61 60
18 18 16 17 17 16 15 18 19 14 12 11 13 14 23 28 35 66 62 69 67 88 96 94 91 94 94 97 99 99 99 98 97 97 95 96 92 87 82 81 73 72 67 61 74 66 72 67 65
21 25 22 19 19 18 17 18 17 14 12 13 12 15 25 27 40 63 64 65 70 92 94 96 96 93 93 94 97 99 99 98 99 95 92 97 91 80 77 70 70 65 60 63 74 71 71 70 63
29 29 32 23 20 17 19 23 16 14 14 14 14 18 24 29 42 63 59 67 82 92 95 96 91 94 91 92 97 99 99 99 100 96 93 98 88 78 71 62 71 65 62 64 72 69 73 72 68
38 40 35 27 19 20 22 22 15 13 15 18 19 20 24 33 51 55 55 75 86 94 97 97 95 95 93 91 96 96 98 99 99 97 96 92 84 75 70 65 74 65 68 76 63 72 64 74 72
46 38 31 30 21 19 21 20 16 12 15 19 21 21 26 34 56 55 63 76 90 94 95 92 96 95 94 96 96 98 99 98 99 98 96 95 86 73 69 76 84 73 69 76 71 71 74 73 68
30 31 31 25 20 20 23 21 17 15 19 21 24 23 22 32 54 58 71 82 91 95 93 93 94 96 98 98 99 99 98 98 97 98 94 98 92 79 76 79 80 87 70 67 65 77 65 73 71
27 30 28 22 20 20 26 28 22 16 17 18 18 16 22 56 56 63 76 86 92 93 89 90 91 94 92 92 96 97 96 96 93 94 94 93 92 81 70 76 74 81 74 70 71 70 76 74 70
18 24 27 26 22 22 32 34 25 18 17 16 14 16 26 56 60 67 72 88 94 89 89 87 86 92 91 93 96 98 98 99 98 97 98 95 87 78 67 72 79 83 79 72 72 69 66 72 76
22 16 18 21 28 46 32 52 35 23 21 17 15 15 22 55 55 65 72 88 91 83 82 82 84 89 90 93 92 93 96 96 95 95 94 95 88 84 75 74 73 77 78 80 71 71 77 76 74
19 20 19 20 29 43 44 47 42 27 26 19 18 17 18 51 56 67 70 80 85 81 79 79 84 88 88 84 87 88 92 93 94 94 94 94 92 89 81 79 80 82 81 86 85 82 80 82 84
18 24 25 24 38 55 46 44 48 36 26 18 16 15 19 49 53 62 65 75 84 86 82 81 83 87 87 83 81 82 89 92 95 94 92 91 91 91 87 81 85 84 85 91 92 88 85 84 90
22 27 57 64 65 60 34 40 39 29 23 20 18 20 25 47 54 57 70 75 85 90 81 82 81 88 86 85 84 79 86 85 87 88 88 90 92 92 90 79 85 84 85 84 88 91 89 86 92
28 28 61 66 77 67 36 60 46 26 20 18 15 22 39 47 50 52 66 72 82 86 85 76 80 86 85 87 83 76 80 82 80 78 78 78 83 82 78 74 72 78 83 83 88 92 89 88 92
30 35 26 40 48 77 64 47 42 34 27 26 18 24 38 43 48 50 56 66 78 80 86 81 76 76 83 84 83 77 79 82 79 71 69 68 69 69 76 71 70 78 80 84 88 92 89 89 93
24 24 36 38 53 64 50 57 64 46 35 34 29 22 32 41 43 47 50 63 76 76 76 82 79 70 75 80 82 77 78 78 79 77 75 72 71 66 70 71 68 73 85 82 83 86 88 89 92
31 29 31 33 45 61 64 51 50 48 42 41 30 22 33 40 39 45 46 51 70 73 76 80 81 79 79 70 80 78 77 79 76 79 76 75 77 72 70 70 68 70 79 85 88 86 83 89 91
22 25 25 41 39 47 46 42 33 40 38 35 38 37 21 24 38 41 45 47 63 69 75 77 77 79 80 77 74 76 78 83 83 80 76 74 75 78 76 72 69 70 71 71 80 81 78 89 91
Wind_Speed
5 6 2 3 4 4 6 10 5 4 5 4 8 7 3 4 5 4 4 5 13 11 9 11 13 14 15 15 15 17 18 17 18 18 18 18 18 19 21 20 19 18 21 23 22 20 22 23 22
2 3 1 2 3 2 8 6 5 9 7 8 7 3 0 4 6 10 6 6 11 12 11 10 13 14 15 16 15 16 17 19 18 18 19 19 19 20 20 20 19 18 19 22 22 22 23 21 19
1 3 3 4 3 7 6 7 6 4 6 5 4 3 5 2 11 10 8 10 8 10 13 12 13 14 14 16 18 17 17 18 20 20 18 18 18 20 21 21 19 18 19 21 22 21 21 18 16
2 3 4 1 12 19 14 6 8 7 6 7 7 2 1 6 6 9 9 9 8 7 11 14 15 14 16 17 17 17 19 19 18 20 22 20 16 18 19 20 19 19 18 19 21 20 16 15 16
2 1 3 5 12 14 20 6 8 6 3 3 5 5 5 5 16 12 10 9 8 7 6 9 12 12 13 16 18 20 20 19 18 14 15 18 20 19 19 20 18 19 19 19 20 18 15 14 15
3 2 1 6 12 11 11 5 8 7 4 4 3 3 4 12 13 8 10 9 8 7 6 6 10 10 9 7 15 14 15 11 15 13 5 10 14 20 19 19 18 17 20 18 16 16 18 15 12
5 3 6 8 12 18 13 5 7 7 3 5 1 1 4 6 10 10 11 9 8 5 7 6 5 7 10 10 13 16 17 18 20 24 25 20 12 11 18 18 20 18 19 17 13 14 16 14 13
4 3 8 8 11 18 11 1 9 8 6 4 4 4 6 7 9 10 10 9 8 6 7 6 5 5 6 6 11 17 17 15 18 18 23 22 16 15 15 18 21 20 17 17 13 12 15 13 11
2 3 12 12 14 17 8 5 4 5 4 3 7 9 8 18 13 8 6 6 6 4 6 5 6 4 6 6 8 8 13 15 16 14 13 14 11 18 17 15 22 20 17 16 15 13 13 12 10
8 4 15 13 17 12 13 7 6 1 4 4 3 5 17 17 13 13 9 9 7 7 6 6 5 5 8 6 6 7 9 8 8 8 10 8 17 16 11 15 21 21 18 15 14 12 11 7 3
7 14 14 17 17 14 9 10 6 6 6 6 3 3 8 11 11 10 9 9 13 11 5 6 5 6 6 6 5 2 3 5 5 8 12 9 6 12 10 9 9 10 15 7 7 8 4 5 3
13 16 15 17 18 14 12 7 8 5 8 6 7 3 6 8 9 9 9 9 10 10 6 6 5 5 5 4 3 4 4 5 6 8 14 9 10 12 11 8 9 9 6 8 6 3 6 5 5
15 15 16 18 14 11 14 9 9 13 9 8 8 8 8 7 8 7 9 9 10 9 7 6 6 4 4 5 5 5 5 5 6 8 14 8 14 13 12 10 8 8 9 8 5 4 6 5 4
12 14 16 8 9 7 13 9 4 15 10 11 10 11 9 10 10 7 9 8 8 10 7 7 6 5 4 4 5 4 4 5 5 8 10 15 11 14 12 11 9 9 10 9 5 5 5 5 4
9 12 14 14 8 10 10 14 16 16 15 16 11 9 9 9 10 13 9 9 9 9 8 6 7 5 3 6 5 5 3 5 6 11 15 11 15 17 15 11 9 10 9 11 6 5 4 5 4
7 7 7 5 6 12 9 20 23 16 16 16 17 9 8 8 11 14 11 11 12 10 8 7 4 5 4 4 4 4 4 2 1 11 13 12 18 18 15 12 9 11 9 8 8 8 5 5 5
4 11 15 15 11 11 8 18 19 17 9 7 8 9 9 9 12 14 13 15 12 11 9 8 5 6 4 3 4 3 6 3 3 8 10 14 14 17 14 12 9 12 9 6 10 6 9 5 4
7 12 13 17 13 14 17 20 17 10 7 11 10 10 10 11 16 16 15 15 13 9 9 8 5 5 4 3 1 1 2 5 3 5 9 10 7 14 13 10 9 10 8 7 7 7 4 5 6
11 13 17 13 12 11 11 14 13 9 4 7 9 9 10 14 16 17 16 15 13 9 9 7 6 5 4 2 3 4 6 6 6 4 9 11 5 6 9 8 10 6 10 10 10 5 8 2 3
19 20 20 19 14 15 15 17 16 11 6 7 8 9 10 16 17 17 17 14 10 11 9 8 6 6 4 3 2 2 6 7 9 7 9 9 7 6 9 12 10 9 8 10 7 7 4 3 4
18 17 12 17 14 13 13 20 13 11 6 10 15 9 8 22 21 18 17 15 14 13 12 10 8 7 4 6 4 4 6 5 6 10 8 8 8 6 11 13 11 8 5 7 7 7 7 4 1
18 12 16 18 9 8 0 19 16 16 19 15 18 18 9 17 19 16 17 15 15 13 11 11 10 8 7 6 7 9 7 9 6 9 11 10 10 8 9 13 14 10 6 7 6 5 4 4 5
15 11 13 13 11 7 4 12 5 12 21 19 9 12 13 22 23 21 19 18 15 14 11 9 11 10 9 7 6 8 7 6 8 7 15 13 10 10 10 11 14 9 7 6 7 5 5 3 3
6 4 8 9 2 10 10 13 4 10 16 16 16 13 14 23 20 18 16 17 15 13 12 10 11 11 10 9 8 11 12 11 9 10 10 10 8 7 8 8 10 8 6 6 4 5 6 6 4
8 7 1 3 2 6 8 12 12 16 20 23 19 9 11 22 19 19 20 17 17 17 15 12 12 11 12 10 9 9 12 14 14 13 10 12 8 8 7 8 7 8 8 8 6 6 6 6 5
6 8 7 8 6 3 8 8 8 10 17 20 13 7 16 19 18 20 20 18 19 18 14 16 15 12 13 12 11 10 13 9 10 13 10 9 9 11 13 12 12 12 11 9 7 4 6 7 8
6 10 9 10 4 4 4 7 11 15 22 12 6 4 13 16 17 19 18 18 19 17 16 14 16 15 13 12 13 12 12 11 11 14 12 11 11 9 11 12 12 7 9 8 8 5 7 7 6
11 4 8 6 13 7 5 5 3 17 13 5 15 6 11 15 17 17 18 18 17 18 15 12 14 16 14 12 13 12 13 14 11 11 13 13 11 12 12 14 13 11 7 10 10 7 7 9 7
5 11 2 3 9 5 2 5 6 4 7 10 15 9 9 6 17 18 17 17 19 17 16 14 13 14 15 15 12 13 14 13 14 13 13 14 13 14 14 14 14 13 10 7 7 8 9 10 9
9 7 9 9 5 3 8 7 7 10 7 10 11 19 14 9 8 14 18 17 17 18 17 17 14 15 15 15 13 13 13 13 13 15 15 15 14 13 14 14 14 14 13 12 10 9 10 10 9
Wind_Direction
176 219 181 4 40 84 260 265 233 49 70 71 60 72 114 210 241 197 196 113 125 136 147 147 147 150 147 147 145 146 145 138 137 134 131 130 128 125 122 121 123 126 125 127 129 128 121 117 113
200 251 321 278 119 323 283 219 91 110 128 99 86 93 151 272 81 126 113 167 130 148 156 149 150 155 155 154 154 156 155 148 147 143 140 140 137 132 130 129 129 129 132 132 130 128 124 122 119
304 165 104 161 207 219 228 328 96 100 110 113 104 155 172 179 137 144 151 158 131 148 147 153 154 156 161 164 164 164 161 157 154 150 147 144 144 142 138 134 133 136 138 137 135 131 130 127 120
182 346 335 125 248 258 244 235 105 66 39 126 131 153 340 170 131 143 136 116 94 94 133 153 159 163 167 172 174 167 164 163 162 158 152 144 142 144 141 135 137 139 142 142 141 137 132 126 115
298 292 196 242 260 266 280 211 123 115 125 7 144 217 200 69 105 116 112 92 92 98 115 150 156 166 173 182 182 183 179 161 172 158 168 145 150 156 148 137 140 142 140 140 140 139 131 115 112
318 137 29 244 270 284 293 186 116 98 62 295 321 188 23 132 114 119 107 103 91 88 135 142 153 156 154 181 186 145 136 148 154 137 193 144 154 164 143 141 140 142 134 137 147 145 124 120 114
201 8 243 267 287 299 302 135 115 116 194 267 87 36 132 87 129 126 117 114 111 127 127 143 159 177 180 167 151 137 137 147 146 149 139 124 221 195 148 143 134 134 132 139 147 135 120 120 108
183 133 278 267 271 281 291 121 155 149 228 166 129 204 210 175 139 125 126 131 139 152 153 162 173 191 173 180 165 159 154 151 155 171 167 171 104 225 155 139 131 130 135 141 144 123 114 117 122
246 228 255 253 260 267 322 9 269 194 159 184 222 218 157 151 143 127 135 127 128 141 146 167 167 184 147 147 154 153 165 180 179 188 168 132 161 208 160 141 134 131 139 143 148 123 127 132 128
199 187 243 257 268 285 306 309 295 38 282 259 290 98 140 146 155 159 172 165 165 166 170 179 176 167 140 144 150 167 166 172 180 176 152 148 178 184 157 143 131 134 143 145 130 135 131 119 125
236 232 250 260 272 275 290 317 297 317 297 251 255 295 146 162 171 165 174 164 181 170 158 183 166 155 147 140 143 147 138 175 182 160 145 168 176 160 144 136 136 137 140 133 136 141 122 141 144
250 252 246 253 254 274 282 292 299 264 247 254 283 239 151 159 175 160 165 141 138 153 149 176 134 126 145 135 144 146 159 166 181 165 161 167 190 145 145 139 147 141 145 139 152 144 145 155 133
247 255 261 259 256 256 269 270 262 273 260 272 269 277 170 182 165 141 121 122 121 140 145 149 119 104 145 148 156 175 170 166 164 155 177 187 148 145 143 144 149 154 146 151 154 168 148 145 156
257 257 265 278 283 280 268 261 271 276 254 243 234 248 193 177 154 128 122 135 122 138 139 138 132 130 142 149 149 159 170 167 183 165 161 185 153 145 144 148 156 154 151 159 152 161 139 145 164
270 289 283 279 272 288 290 285 266 259 259 253 227 210 191 183 149 149 139 139 128 123 124 124 114 114 153 148 149 143 209 148 204 186 173 171 159 149 148 148 158 160 157 154 150 141 127 122 163
303 288 275 279 271 265 246 265 265 255 254 253 229 189 181 193 147 146 145 119 122 127 123 119 132 154 172 158 140 141 144 112 300 144 150 175 144 146 145 155 161 161 157 160 151 146 131 140 138
258 260 272 281 270 269 261 274 265 245 245 183 170 202 200 199 133 143 139 132 130 132 133 130 154 173 189 157 151 138 130 114 39 111 117 139 139 146 149 162 152 160 158 160 151 142 143 141 143
218 251 254 257 257 253 270 275 261 234 229 227 208 210 202 183 156 141 122 126 122 126 131 131 166 193 162 130 105 105 122 132 126 120 122 101 127 148 153 159 151 157 151 150 141 138 133 141 158
258 258 263 277 289 299 291 304 302 237 256 240 247 223 222 189 147 128 127 126 119 118 130 153 170 152 144 137 180 201 184 154 144 132 133 117 113 116 144 136 130 129 153 152 140 118 141 98 132
235 246 260 276 285 293 306 304 296 285 239 260 240 234 222 130 138 136 133 134 130 137 150 160 160 160 169 153 155 185 175 175 164 150 144 128 120 117 137 128 122 111 126 124 121 125 115 98 163
245 241 250 252 255 255 305 294 299 292 258 258 265 246 152 153 147 147 147 144 140 148 162 166 172 164 146 133 128 116 112 119 141 165 143 129 129 124 131 127 124 108 110 137 131 135 130 139 208
245 248 254 266 268 280 304 288 289 297 289 254 245 247 192 165 151 148 149 151 152 152 163 169 168 157 148 145 141 147 147 148 154 152 151 137 131 126 121 125 133 137 139 135 128 131 129 130 157
235 225 248 268 235 255 261 274 275 288 286 269 256 243 196 165 160 160 160 155 152 147 166 168 157 162 158 163 153 137 127 115 128 132 143 139 129 129 134 131 121 140 136 143 144 147 145 146 141
235 245 242 260 104 261 252 237 217 242 268 295 280 253 182 166 158 150 149 146 150 146 166 168 159 168 170 170 163 153 134 135 130 145 146 146 146 144 129 129 132 143 131 146 180 174 175 196 194
221 218 179 338 256 242 208 256 251 255 247 248 280 187 137 155 152 148 151 156 156 158 165 164 165 165 176 176 171 162 153 156 153 150 156 156 148 148 148 155 153 157 185 175 177 196 191 207 206
213 184 159 205 206 247 233 245 251 283 261 257 261 200 137 149 153 158 157 157 155 160 165 169 171 170 176 173 179 168 162 162 168 171 166 164 167 176 173 174 180 192 185 179 178 188 203 219 212
217 237 203 236 271 98 247 287 312 356 334 6 268 103 146 152 157 158 156 156 156 161 174 175 175 174 181 176 176 171 170 168 175 176 175 177 175 176 178 187 194 189 189 187 186 201 229 222 214
193 197 195 201 233 248 235 227 187 327 2 24 309 343 162 164 157 161 161 157 160 163 165 173 176 180 183 180 178 175 173 174 176 176 178 180 185 185 181 190 200 202 187 191 193 209 215 220 219
187 220 108 11 248 201 256 265 206 213 309 0 322 346 9 185 170 166 166 163 158 160 167 174 179 171 178 190 183 180 177 178 175 184 187 184 180 188 187 191 199 203 204 201 197 208 216 216 222
226 208 175 209 224 250 219 258 208 152 99 333 351 328 346 11 222 164 164 160 159 163 166 176 176 180 178 184 193 187 179 177 175 182 191 191 190 190 190 195 204 209 213 214 212 219 225 219 222